Location: Unspecified
(0.0000°N, 0.0000°E)
Time: 00:17:18
(UTC+00:00)

Courier 1B Rocket - Visible Passes

Search period start: 26 June 2017 00:00
Search period end: 06 July 2017 00:00
Orbit: 920 x 1202 km, 28.2° (Epoch: 25 June)

Date Brightness Start Highest point End Pass type
(mag) Time Alt. Az. Time Alt. Az. Time Alt. Az.
26 Jun 5.5 19:12:12 10° NW 19:18:06 43° NNE 19:21:22 24° E visible
26 Jun 6.9 21:05:31 10° WNW 21:07:44 22° W 21:07:44 22° W visible
27 Jun 7.3 04:49:13 10° S 04:52:56 14° SSE 04:56:42 10° SE visible
27 Jun 4.8 20:04:17 10° WNW 20:10:31 75° SSW 20:10:35 75° SSW visible
28 Jun 4.9 19:03:17 10° NW 19:09:33 71° NNE 19:13:27 24° ESE visible
28 Jun 6.9 20:57:38 10° W 20:59:50 20° WSW 20:59:50 20° WSW visible
29 Jun 7.0 04:40:00 12° SSW 04:44:34 20° SSE 04:49:58 10° ESE visible
29 Jun 5.4 19:56:00 10° WNW 20:01:58 46° SSW 20:02:43 44° S visible
30 Jun 7.3 03:42:51 14° SSE 03:43:01 14° SSE 03:46:30 10° SE visible
30 Jun 6.2 05:30:21 10° SW 05:37:25 42° SSE 05:44:42 10° E visible
30 Jun 5.0 18:54:39 10° WNW 19:00:59 73° SSW 19:05:38 19° SE visible
30 Jun 7.1 20:50:17 10° WSW 20:52:00 15° SW 20:52:00 15° SW visible
01 Jul 6.6 04:32:05 18° SSW 04:36:03 29° SSE 04:42:31 10° E visible
01 Jul 6.1 19:48:06 10° W 19:53:27 29° SSW 19:54:55 26° S visible
02 Jul 6.9 03:34:58 20° SSE 03:34:58 20° SSE 03:39:49 10° ESE visible
02 Jul 5.7 05:21:21 10° SW 05:28:42 63° SSE 05:36:24 10° ENE visible
02 Jul 5.6 18:46:20 10° W 18:52:25 45° SSW 18:57:49 12° SE visible
02 Jul 7.3 20:43:53 10° SW 20:44:12 10° SW 20:44:12 10° SW visible
03 Jul 6.0 04:24:14 28° SSW 04:27:25 42° SSE 04:34:35 10° E visible
03 Jul 6.6 19:40:45 10° WSW 19:45:02 19° SSW 19:47:06 16° S visible
04 Jul 6.6 03:27:08 27° SE 03:27:08 27° SE 03:32:23 10° E visible
04 Jul 5.4 05:13:30 14° WSW 05:19:57 88° NNW 05:27:45 10° ENE visible
04 Jul 6.3 18:38:25 10° W 18:43:53 28° SSW 18:49:12 10° SSE visible
05 Jul 5.4 04:16:24 43° SSW 04:18:43 63° SSE 04:26:15 10° ENE visible
05 Jul 7.0 19:34:23 10° SW 19:36:43 12° SSW 19:39:03 10° S visible
